Terminal Aerodrome Forecast
Issued by NWS

Home | Current Version | Previous Version | Text Only | Print | Product List | Glossary On
Versions: 1 2 3 4 5 6 7 8 9 10 11 12 13 14 15 16 17 18 19 20 21 22 23 24 25 26 27 28 29 30 31 32 33 34 35 36 37
000
FTUS41 KBTV 282328
TAFPBG
TAF
KPBG 282328Z 2900/2924 VRB03KT P6SM OVC050
     FM290600 VRB03KT P6SM SCT050 SCT100
     FM291500 15007KT P6SM BKN080
     FM292200 16006KT P6SM OVC060=

USA.gov is the U.S. government's official web portal to all federal, state and local government web resources and services.